星链-2150 (STARLINK-2150 )

导读

STARLINK-2150是美国太空探索技术公司Starlink卫星互联网计划的一颗卫星,于2021年3月4日发射入轨。它属于星链低轨星座组网卫星,运行在近地轨道,主要为全球范围内提供高速宽带互联网服务,是SpaceX星链星座部署过程中的重要组成部分,助力完成星链全球网络覆盖的建设目标。

基本信息
目录编号:
47739
目录名称:
STARLINK-2150
国际标识:
2021-017T
轨道中心:
EARTH
卫星名称:
星链-2150
卫星全名:
星链-2150 (STARLINK-2150 )
卫星状态:
在轨 (已飞行1932 天)
发射日期:
2021-03-04 UTC
国别 :
美国 (US)
星等 :
--
轨道信息
数据来源 国际轨道数据 AOE轨道数据
星历时间 2026-06-18T11:14:52+0800
14小时前
查看轨道信息
2026-06-14T03:00:00+0800
4天前
查看轨道信息
半长轴 6848.873km 6848.835km
偏心率 0.0001087 0.0001361
轨道倾角 53.159° 53.156°
近地点辐角 92.140° 97.641°
升交点赤经 111.922° 132.145°
平近点角 267.973° 57.700°
近地点 469.991km 469.765km
远地点 471.481km 471.631km
周期 94.013分钟 94.012分钟
每日圈数 15.317014 15.317144
详细信息
固有亮度:
5
最大亮度:
2.5
卫星平台:
Starlink V1.0
覆盖范围:
全球
运营商:
太空探索技术公司
运营商所在国:
美国
制造商(研发单位):
太空探索技术公司
制造商所在国:
美国
使用方式:
暂无
卫星简介
星链(Starlink)计划是由太空探索技术公司(SpaceX)提出的一个巨型低轨卫星互联网星座项目,计划在2019年至2024年间在太空搭建由约1.2万颗卫星组成的“星链”网络,其中1584颗将部署在地球上空550千米处的近地轨道,并从2020年开始工作。该卫星仍在工作。
2D轨道图
3D轨道图
轨道高度分析图
轨道倾角分析图
轨道综合分析图
查看轨道综合分析图